Погода в Мерсине

Турция     36°47′22″N   34°37′22″E
темп.,
°C
ветер,
м/с
пор.,
м/с
влажн.,
%
обл.,
%
осадки,
мм/ч
давл.,
гПа
погр.,
м
9 декабря, чт
чт900:00+11сз127574 0.0 1013152
03:00+10з117539 0.0 1015172
06:00+10ссз21750 0.0 1017123
09:00+11ссз11640 0.0 1020110
12:00+14юв11610 0.0 1021529
15:00+14ююв21630 0.0 1021574
18:00+12зсз11731 0.0 1022114
21:00+12с22732 0.0 1024109
10 декабря, пт
пт1000:00+11с226943 0.0 102581
03:00+11с33620 0.0 102696
06:00+11с33611 0.0 102693
09:00+12с23590 0.0 102699
12:00+16всв235215 0.0 1026689
15:00+16всв44526 0.0 10241115
18:00+14св4564100 0.0 1023280
21:00+14с3462100 0.0 1023141
11 декабря, сб
сб1100:00+13с455959 0.0 1022144
03:00+13с34574 0.0 1022124
06:00+12ссв34550 0.0 1021114
09:00+13ссв34530 0.0 1022124
12:00+17всв4544100 0.0 1021736
15:00+18всв55470 0.0 1020804
18:00+15ссв346062 0.0 1021178
21:00+14с34559 0.0 1022103
12 декабря, вс
вс1200:00+14с345559 0.0 1022120
03:00+13с345399 0.0 102292
06:00+13с345167 0.0 102191
09:00+14ссв33501 0.0 102288
12:00+18всв45420 0.0 1022596
15:00+19всв55440 0.0 1020747
18:00+15ссв34560 0.0 1020140
21:00+15с33490 0.0 102075
13 декабря, пн
пн1300:00+14с34470 0.0 102083
03:00+13с34460 0.0 1019111
06:00+13с34470 0.0 101886
09:00+14с334648 0.0 101889
12:00+18всв564070 0.0 1017605
15:00+19в454190 0.0 1015763
18:00+15св33550 0.0 1016152
21:00+14с335323 0.0 101571